Portada
METAR-TAF:

METAR-TAF

Aeroports :

Base aèria

Shizuhama, Japó

latitud: 34-49N, longitud: 138-18E, altitud: 7 m

Observació

L'informe es va fer fa 6 hores i 4 minuts, a les 05:03 UTC
Vent 7 kt del Est/Nord-Est, variant entre Nord-Est i Est
Temperatura 13°C
Humitat 62%
Pressió 1024 hPa
Visibilitat 10 km o més
Escasses núvols a una alçada de 2000 ft
Cel ennuvolat a una alçada de 15000 ft

METAR: RJNY 250503Z 07007KT 040V100 9999 FEW020 BKN150 13/06 Q1024 RMK 1CU020 5AC150 A3026

Hora: 20:07 (11:07 UTC)


TAF: manca

Observacions i pronòstics meteorològics de més de 4000 aeroports (METAR i TAF).

Les estacions disponibles són els punts grocs i vermells al mapa.

Posi el ratolí al punt desitjat per veure el nom de l'estació.

Feu clic per veure les observacions i els pronòstics meteorològics.

Per canviar el mapa: feu clic els botons verds amb una creu de color negre per apropar; al botó verd amb un guió per allunyar la imatge; o en les fletxes verdes per a mapes adjacents.


METAR-TAF: